{"data":{"norad_id":58529,"intl_designator":"2023-191X","name":"STARLINK-30988","alt_names":[],"object_type":"PAYLOAD","status":"ACTIVE","operator":null,"country":"US","launch_date":"2023-12-07","launch_site_code":"AFETR","launch_vehicle":null,"mission":null,"orbit_class":"UNKNOWN","rcs_meters":null,"size_class":null,"mass_kg":null,"dimensions":null,"purposes":["comms"],"wikipedia_slug":null,"has_3d_model":false,"image_url":null,"decayed_at":null,"tle_current":{"epoch":"2026-05-24T22:33:22.372992Z","epoch_age_seconds":73529,"freshness":"FRESH","line1":"1 58529U 23191X   26144.93984228  .00000820  00000+0  39312-4 0  9998","line2":"2 58529  43.0036  32.7346 0000821 260.2558  99.8201 15.27574934137132","mean_motion":15.27574934,"eccentricity":8.21e-5,"inclination_deg":43.0036,"raan_deg":32.7346,"arg_perigee_deg":260.2558,"mean_anomaly_deg":99.8201,"bstar":3.9312e-5,"rev_number":13713,"period_min":94.267061336842,"perigee_km":482.50096088416,"apogee_km":483.62757013196,"semimajor_km":6861.2012655081,"source":"CELESTRAK","updated_at":"2026-05-25T13:38:18.659652Z"}}}